FJI357 NGFU-NGTA

Flight info

Callsign FJI357
Flight time 1h 42m
Altitude 34000
Route BODKI DCT SABBA
Aircraft A320/M-SDE3FGHIRWY/LB1

Departure

Time 2026-05-07 14:16
Airport Funafuti International Airport (NGFU)

Arrival

Time 2026-05-07 15:58
Airport Bonriki International Airport (NGTA)
Time Latitude Longitude Altitude Speed Heading
2026-05-07 14:02 -8.52477 179.19531 11 ft 0 kts 251°
2026-05-07 14:08 -8.52476 179.19533 38 ft 2 kts 253°
2026-05-07 14:08 -8.52473 179.19549 11 ft 2 kts 245°
2026-05-07 14:08 -8.52471 179.19554 12 ft 0 kts 238°
2026-05-07 14:12 -8.52472 179.19553 11 ft 1 kts 238°
2026-05-07 14:12 -8.52489 179.19549 12 ft 2 kts 165°
2026-05-07 14:12 -8.52504 179.19557 11 ft 5 kts 162°
2026-05-07 14:13 -8.52540 179.19543 10 ft 6 kts 215°
2026-05-07 14:13 -8.52574 179.19514 10 ft 7 kts 221°
2026-05-07 14:13 -8.52633 179.19459 10 ft 17 kts 223°
2026-05-07 14:13 -8.52719 179.19377 12 ft 17 kts 223°
2026-05-07 14:14 -8.52799 179.19302 12 ft 12 kts 222°
2026-05-07 14:14 -8.52854 179.19254 12 ft 8 kts 220°
2026-05-07 14:14 -8.52884 179.19241 13 ft 3 kts 194°
2026-05-07 14:14 -8.52888 179.19233 13 ft 1 kts 255°
2026-05-07 14:15 -8.52881 179.19230 13 ft 2 kts 335°
2026-05-07 14:15 -8.52864 179.19242 13 ft 0 kts 36°
2026-05-07 14:16 -8.52766 179.19328 12 ft 59 kts 42°
2026-05-07 14:16 -8.52242 179.19824 17 ft 143 kts 43°
2026-05-07 14:16 -8.51420 179.20622 496 ft 166 kts 48°
2026-05-07 14:16 -8.50580 179.21445 1341 ft 173 kts 46°
2026-05-07 14:17 -8.49680 179.22290 2125 ft 183 kts 47°
2026-05-07 14:17 -8.48679 179.23243 2317 ft 211 kts 47°
2026-05-07 14:17 -8.47553 179.24346 2636 ft 238 kts 45°
2026-05-07 14:17 -8.46309 179.25566 3139 ft 257 kts 46°
2026-05-07 14:18 -8.44920 179.26736 3971 ft 265 kts 31°
2026-05-07 14:18 -8.43145 179.27285 4792 ft 274 kts
2026-05-07 14:18 -8.41258 179.26940 5625 ft 283 kts 337°
2026-05-07 14:18 -8.39564 179.25901 6502 ft 286 kts 328°
2026-05-07 14:19 -8.37905 179.24792 7335 ft 288 kts 328°
2026-05-07 14:19 -8.36228 179.23666 8142 ft 291 kts 328°
2026-05-07 14:19 -8.34530 179.22535 8959 ft 294 kts 329°
2026-05-07 14:19 -8.32812 179.21393 9726 ft 298 kts 329°
2026-05-07 14:20 -8.31043 179.20222 10170 ft 315 kts 329°
2026-05-07 14:20 -8.29140 179.18969 10367 ft 338 kts 328°
2026-05-07 14:20 -8.27114 179.17635 10681 ft 355 kts 328°
2026-05-07 14:20 -8.25031 179.16260 11243 ft 361 kts 328°
2026-05-07 14:21 -8.22914 179.14861 11891 ft 365 kts 327°
2026-05-07 14:21 -8.20779 179.13451 12540 ft 368 kts 327°
2026-05-07 14:21 -8.18622 179.12026 13190 ft 372 kts 327°
2026-05-07 14:21 -8.16471 179.10609 13793 ft 376 kts 327°
2026-05-07 14:22 -8.14268 179.09158 14348 ft 380 kts 327°
2026-05-07 14:22 -8.12044 179.07691 14890 ft 384 kts 327°
2026-05-07 14:22 -8.09768 179.06189 15430 ft 388 kts 327°
2026-05-07 14:22 -8.07527 179.04710 15923 ft 393 kts 327°
2026-05-07 14:23 -8.05230 179.03194 16460 ft 396 kts 327°
2026-05-07 14:23 -8.02914 179.01661 16976 ft 400 kts 327°
2026-05-07 14:23 -8.00580 179.00116 17471 ft 404 kts 327°
2026-05-07 14:23 -7.98216 178.98554 17936 ft 409 kts 327°
2026-05-07 14:24 -7.95829 178.96980 18416 ft 411 kts 327°
2026-05-07 14:24 -7.93437 178.95403 18899 ft 412 kts 327°
2026-05-07 14:24 -7.91028 178.93817 19315 ft 415 kts 327°
2026-05-07 14:24 -7.88599 178.92219 19733 ft 418 kts 327°
2026-05-07 14:25 -7.86151 178.90609 20168 ft 421 kts 327°
2026-05-07 14:25 -7.84527 178.89541 20481 ft 422 kts 326°
2026-05-07 14:25 -7.82057 178.87918 20896 ft 425 kts 326°
2026-05-07 14:25 -7.79571 178.86283 21280 ft 428 kts 326°
2026-05-07 14:26 -7.77067 178.84634 21697 ft 431 kts 326°
2026-05-07 14:26 -7.74556 178.82979 22104 ft 433 kts 326°
2026-05-07 14:26 -7.72021 178.81310 22474 ft 437 kts 326°
2026-05-07 14:26 -7.69473 178.79632 22888 ft 439 kts 326°
2026-05-07 14:27 -7.66915 178.77945 23308 ft 441 kts 326°
2026-05-07 14:27 -7.64340 178.76248 23637 ft 444 kts 326°
2026-05-07 14:27 -7.61744 178.74543 23944 ft 446 kts 326°
2026-05-07 14:27 -7.59139 178.72829 24277 ft 448 kts 326°
2026-05-07 14:28 -7.56523 178.71103 24578 ft 451 kts 326°
2026-05-07 14:28 -7.53893 178.69374 24867 ft 453 kts 326°
2026-05-07 14:28 -7.51245 178.67634 25174 ft 455 kts 326°
2026-05-07 14:28 -7.48585 178.65889 25476 ft 457 kts 326°
2026-05-07 14:29 -7.45913 178.64134 25756 ft 460 kts 326°
2026-05-07 14:29 -7.43229 178.62368 26042 ft 462 kts 326°
2026-05-07 14:29 -7.40531 178.60594 26321 ft 464 kts 326°
2026-05-07 14:29 -7.37818 178.58812 26596 ft 467 kts 325°
2026-05-07 14:30 -7.35093 178.57023 26879 ft 469 kts 325°
2026-05-07 14:30 -7.32350 178.55221 27144 ft 471 kts 325°
2026-05-07 14:30 -7.29595 178.53412 27410 ft 474 kts 325°
2026-05-07 14:30 -7.26828 178.51596 27669 ft 476 kts 325°
2026-05-07 14:31 -7.24048 178.49772 27924 ft 478 kts 325°
2026-05-07 14:31 -7.21254 178.47938 28176 ft 481 kts 325°
2026-05-07 14:31 -7.18443 178.46091 28401 ft 483 kts 325°
2026-05-07 14:31 -7.15621 178.44237 28621 ft 486 kts 325°
2026-05-07 14:32 -7.12788 178.42375 28835 ft 488 kts 325°
2026-05-07 14:32 -7.09941 178.40506 29070 ft 490 kts 325°
2026-05-07 14:32 -7.07074 178.38625 29293 ft 492 kts 325°
2026-05-07 14:32 -7.04199 178.36743 29515 ft 494 kts 325°
2026-05-07 14:33 -7.01311 178.34854 29737 ft 496 kts 325°
2026-05-07 14:33 -6.98409 178.32954 29932 ft 498 kts 324°
2026-05-07 14:33 -6.95504 178.31046 30157 ft 499 kts 324°
2026-05-07 14:33 -6.92599 178.29139 30478 ft 497 kts 324°
2026-05-07 14:34 -6.89711 178.27247 30830 ft 494 kts 324°
2026-05-07 14:34 -6.86837 178.25366 31188 ft 492 kts 324°
2026-05-07 14:34 -6.84018 178.23520 31551 ft 489 kts 324°
2026-05-07 14:34 -6.81176 178.21660 31944 ft 485 kts 325°
2026-05-07 14:35 -6.78358 178.19816 32345 ft 482 kts 324°
2026-05-07 14:35 -6.75557 178.17981 32733 ft 479 kts 324°
2026-05-07 14:35 -6.72775 178.16159 33121 ft 476 kts 324°
2026-05-07 14:35 -6.70009 178.14345 33513 ft 473 kts 324°
2026-05-07 14:36 -6.67256 178.12541 33785 ft 471 kts 324°
2026-05-07 14:36 -6.61793 178.08973 33855 ft 467 kts 324°
2026-05-07 14:37 -6.56345 178.05418 33857 ft 467 kts 324°
2026-05-07 14:37 -6.48186 178.00077 33852 ft 467 kts 324°
2026-05-07 14:38 -6.42742 177.96513 33852 ft 467 kts 325°
2026-05-07 14:38 -6.37292 177.92956 33851 ft 467 kts 325°
2026-05-07 14:39 -6.31838 177.89393 33850 ft 467 kts 325°
2026-05-07 14:39 -6.26393 177.85830 33849 ft 467 kts 325°
2026-05-07 14:40 -6.20944 177.82268 33848 ft 467 kts 325°
2026-05-07 14:40 -6.15488 177.78716 33847 ft 467 kts 325°
2026-05-07 14:41 -6.10040 177.75149 33847 ft 467 kts 324°
2026-05-07 14:41 -6.04590 177.71581 33839 ft 467 kts 325°
2026-05-07 14:42 -5.99174 177.68046 33838 ft 467 kts 325°
2026-05-07 14:42 -5.93719 177.64498 33840 ft 467 kts 325°
2026-05-07 14:43 -5.88262 177.60944 33842 ft 467 kts 325°
2026-05-07 14:43 -5.82810 177.57386 33842 ft 467 kts 325°
2026-05-07 14:44 -5.77354 177.53826 33842 ft 467 kts 325°
2026-05-07 14:44 -5.71907 177.50274 33841 ft 467 kts 325°
2026-05-07 14:45 -5.66451 177.46720 33840 ft 467 kts 326°
2026-05-07 14:45 -5.61000 177.43167 33837 ft 467 kts 326°
2026-05-07 14:46 -5.55540 177.39617 33842 ft 467 kts 326°
2026-05-07 14:46 -5.50083 177.36065 33841 ft 467 kts 325°
2026-05-07 14:47 -5.44631 177.32511 33840 ft 467 kts 326°
2026-05-07 14:47 -5.39173 177.28961 33836 ft 468 kts 326°
2026-05-07 14:48 -5.33741 177.25429 33829 ft 468 kts 325°
2026-05-07 14:48 -5.28279 177.21875 33831 ft 468 kts 325°
2026-05-07 14:49 -5.22810 177.18313 33831 ft 468 kts 325°
2026-05-07 14:49 -5.17343 177.14756 33832 ft 469 kts 326°
2026-05-07 14:50 -5.11872 177.11196 33832 ft 469 kts 326°
2026-05-07 14:50 -5.06396 177.07645 33833 ft 468 kts 326°
2026-05-07 14:51 -5.00927 177.04089 33833 ft 469 kts 326°
2026-05-07 14:51 -4.95458 177.00533 33833 ft 469 kts 326°
2026-05-07 14:52 -4.89979 176.96989 33834 ft 468 kts 326°
2026-05-07 14:52 -4.84507 176.93448 33833 ft 469 kts 326°
2026-05-07 14:53 -4.79028 176.89897 33829 ft 469 kts 326°
2026-05-07 14:53 -4.73550 176.86337 33829 ft 469 kts 326°
2026-05-07 14:54 -4.68064 176.82782 33826 ft 470 kts 326°
2026-05-07 14:54 -4.62575 176.79231 33826 ft 470 kts 326°
2026-05-07 14:55 -4.57084 176.75671 33826 ft 470 kts 326°
2026-05-07 14:55 -4.51595 176.72115 33827 ft 470 kts 326°
2026-05-07 14:56 -4.46137 176.68586 33831 ft 470 kts 326°
2026-05-07 14:56 -4.40645 176.65038 33832 ft 470 kts 326°
2026-05-07 14:57 -4.35160 176.61482 33832 ft 470 kts 326°
2026-05-07 14:57 -4.29669 176.57935 33832 ft 469 kts 326°
2026-05-07 14:58 -4.24181 176.54385 33828 ft 470 kts 326°
2026-05-07 14:58 -4.18698 176.50831 33830 ft 470 kts 326°
2026-05-07 14:59 -4.13213 176.47280 33835 ft 469 kts 326°
2026-05-07 14:59 -4.07741 176.43739 33841 ft 468 kts 326°
2026-05-07 15:00 -4.02264 176.40200 33840 ft 468 kts 326°
2026-05-07 15:00 -3.96794 176.36672 33840 ft 468 kts 327°
2026-05-07 15:01 -3.91323 176.33137 33834 ft 468 kts 326°
2026-05-07 15:01 -3.85861 176.29598 33833 ft 468 kts 326°
2026-05-07 15:02 -3.80398 176.26057 33835 ft 468 kts 326°
2026-05-07 15:02 -3.74926 176.22535 33825 ft 468 kts 327°
2026-05-07 15:03 -3.69461 176.19005 33828 ft 468 kts 326°
2026-05-07 15:03 -3.63991 176.15466 33821 ft 468 kts 327°
2026-05-07 15:04 -3.58548 176.11955 33818 ft 469 kts 327°
2026-05-07 15:04 -3.53068 176.08417 33820 ft 469 kts 326°
2026-05-07 15:05 -3.47585 176.04872 33822 ft 469 kts 327°
2026-05-07 15:05 -3.42098 176.01335 33827 ft 469 kts 327°
2026-05-07 15:06 -3.36606 175.97800 33827 ft 469 kts 327°
2026-05-07 15:06 -3.31119 175.94257 33826 ft 469 kts 327°
2026-05-07 15:07 -3.25633 175.90711 33830 ft 469 kts 327°
2026-05-07 15:07 -3.20149 175.87172 33829 ft 469 kts 327°
2026-05-07 15:08 -3.14666 175.83633 33828 ft 469 kts 327°
2026-05-07 15:08 -3.09179 175.80096 33825 ft 469 kts 327°
2026-05-07 15:09 -3.03692 175.76559 33832 ft 469 kts 327°
2026-05-07 15:09 -2.98206 175.73027 33825 ft 469 kts 327°
2026-05-07 15:10 -2.92725 175.69487 33823 ft 469 kts 327°
2026-05-07 15:10 -2.87237 175.65945 33821 ft 469 kts 327°
2026-05-07 15:11 -2.81747 175.62405 33826 ft 469 kts 327°
2026-05-07 15:11 -2.76255 175.58870 33823 ft 470 kts 327°
2026-05-07 15:12 -2.70762 175.55327 33827 ft 470 kts 327°
2026-05-07 15:12 -2.65268 175.51792 33830 ft 469 kts 327°
2026-05-07 15:13 -2.59820 175.48272 33830 ft 469 kts 327°
2026-05-07 15:13 -2.54334 175.44740 33830 ft 469 kts 327°
2026-05-07 15:14 -2.48838 175.41205 33823 ft 469 kts 327°
2026-05-07 15:14 -2.43344 175.37675 33821 ft 470 kts 327°
2026-05-07 15:15 -2.38742 175.34708 33817 ft 470 kts 327°
2026-05-07 15:15 -2.33277 175.31181 33823 ft 470 kts 327°
2026-05-07 15:16 -2.27774 175.27641 33826 ft 470 kts 327°
2026-05-07 15:16 -2.22272 175.24103 33830 ft 470 kts 327°
2026-05-07 15:17 -2.16773 175.20558 33830 ft 470 kts 327°
2026-05-07 15:17 -2.11276 175.17015 33828 ft 470 kts 327°
2026-05-07 15:18 -2.05775 175.13472 33829 ft 470 kts 327°
2026-05-07 15:18 -2.00279 175.09930 33825 ft 470 kts 327°
2026-05-07 15:19 -1.94775 175.06394 33828 ft 470 kts 327°
2026-05-07 15:19 -1.89273 175.02858 33826 ft 470 kts 327°
2026-05-07 15:20 -1.83776 174.99314 33822 ft 470 kts 327°
2026-05-07 15:20 -1.78309 174.95798 33824 ft 470 kts 327°
2026-05-07 15:21 -1.72805 174.92262 33824 ft 471 kts 327°
2026-05-07 15:21 -1.67300 174.88719 33828 ft 471 kts 327°
2026-05-07 15:22 -1.61794 174.85176 33825 ft 471 kts 328°
2026-05-07 15:22 -1.56281 174.81632 33827 ft 471 kts 327°
2026-05-07 15:23 -1.50776 174.78093 33830 ft 471 kts 328°
2026-05-07 15:23 -1.45269 174.74548 33831 ft 470 kts 328°
2026-05-07 15:24 -1.39768 174.71011 33834 ft 470 kts 327°
2026-05-07 15:24 -1.34271 174.67471 33826 ft 470 kts 327°
2026-05-07 15:25 -1.28675 174.64108 33830 ft 469 kts 333°
2026-05-07 15:25 -1.22855 174.61175 33835 ft 468 kts 334°
2026-05-07 15:26 -1.17015 174.58290 33835 ft 468 kts 334°
2026-05-07 15:26 -1.11178 174.55406 33835 ft 468 kts 334°
2026-05-07 15:27 -1.05395 174.52523 33834 ft 467 kts 334°
2026-05-07 15:27 -0.99550 174.49588 33831 ft 467 kts 334°
2026-05-07 15:28 -0.93736 174.46686 33826 ft 467 kts 334°
2026-05-07 15:28 -0.87959 174.43801 33826 ft 467 kts 334°
2026-05-07 15:29 -0.82150 174.40895 33822 ft 467 kts 334°
2026-05-07 15:29 -0.76343 174.37995 33823 ft 467 kts 334°
2026-05-07 15:30 -0.70522 174.35099 33823 ft 467 kts 334°
2026-05-07 15:30 -0.64712 174.32206 33823 ft 467 kts 334°
2026-05-07 15:31 -0.58895 174.29298 33824 ft 467 kts 334°
2026-05-07 15:31 -0.53082 174.26400 33825 ft 467 kts 334°
2026-05-07 15:32 -0.47272 174.23494 33823 ft 467 kts 334°
2026-05-07 15:32 -0.41456 174.20586 33824 ft 467 kts 334°
2026-05-07 15:33 -0.35641 174.17689 33820 ft 467 kts 334°
2026-05-07 15:33 -0.29828 174.14788 33821 ft 467 kts 333°
2026-05-07 15:34 -0.24016 174.11883 33824 ft 467 kts 334°
2026-05-07 15:34 -0.18195 174.08979 33826 ft 467 kts 334°
2026-05-07 15:35 -0.12371 174.06075 33406 ft 469 kts 334°
2026-05-07 15:35 -0.09447 174.04617 33030 ft 470 kts 334°
2026-05-07 15:35 -0.06559 174.03174 32665 ft 471 kts 334°
2026-05-07 15:36 -0.03587 174.01691 32292 ft 473 kts 334°
2026-05-07 15:36 -0.00677 174.00239 31880 ft 475 kts 334°
2026-05-07 15:36 0.02319 173.98740 31440 ft 476 kts 334°
2026-05-07 15:36 0.05243 173.97279 31033 ft 477 kts 334°
2026-05-07 15:37 0.08215 173.95798 30617 ft 479 kts 334°
2026-05-07 15:37 0.11194 173.94314 30204 ft 474 kts 334°
2026-05-07 15:37 0.14116 173.92859 29785 ft 465 kts 334°
2026-05-07 15:37 0.16980 173.91427 29314 ft 457 kts 334°
2026-05-07 15:38 0.19801 173.90014 28843 ft 449 kts 334°
2026-05-07 15:38 0.22573 173.88628 28380 ft 442 kts 334°
2026-05-07 15:38 0.25309 173.87264 27929 ft 436 kts 334°
2026-05-07 15:38 0.28002 173.85923 27486 ft 429 kts 334°
2026-05-07 15:39 0.30660 173.84603 27046 ft 423 kts 334°
2026-05-07 15:39 0.33276 173.83305 26621 ft 417 kts 334°
2026-05-07 15:39 0.35855 173.82016 26183 ft 412 kts 334°
2026-05-07 15:39 0.38413 173.80737 25717 ft 409 kts 334°
2026-05-07 15:40 0.40939 173.79475 25262 ft 405 kts 334°
2026-05-07 15:40 0.43448 173.78223 24800 ft 401 kts 334°
2026-05-07 15:40 0.45939 173.76979 24372 ft 398 kts 334°
2026-05-07 15:40 0.48400 173.75749 23935 ft 395 kts 334°
2026-05-07 15:41 0.50846 173.74527 23502 ft 392 kts 334°
2026-05-07 15:41 0.53282 173.73310 22959 ft 390 kts 334°
2026-05-07 15:41 0.55709 173.72100 22402 ft 389 kts 334°
2026-05-07 15:41 0.58125 173.70892 21846 ft 389 kts 334°
2026-05-07 15:42 0.60540 173.69681 21312 ft 388 kts 334°
2026-05-07 15:42 0.62953 173.68473 20783 ft 387 kts 334°
2026-05-07 15:42 0.65359 173.67275 20263 ft 386 kts 334°
2026-05-07 15:42 0.67768 173.66079 19748 ft 386 kts 334°
2026-05-07 15:43 0.70165 173.64885 19252 ft 385 kts 334°
2026-05-07 15:43 0.72557 173.63690 18758 ft 384 kts 334°
2026-05-07 15:43 0.74943 173.62495 18257 ft 384 kts 334°
2026-05-07 15:43 0.77370 173.61392 17701 ft 383 kts 339°
2026-05-07 15:44 0.79843 173.60413 17113 ft 383 kts 340°
2026-05-07 15:44 0.82322 173.59438 16544 ft 382 kts 340°
2026-05-07 15:44 0.84763 173.58475 16002 ft 382 kts 340°
2026-05-07 15:44 0.87233 173.57500 15443 ft 382 kts 340°
2026-05-07 15:45 0.89703 173.56524 14910 ft 381 kts 340°
2026-05-07 15:45 0.92186 173.55614 14382 ft 380 kts 344°
2026-05-07 15:45 0.94709 173.54841 13863 ft 379 kts 345°
2026-05-07 15:45 0.97223 173.54084 13301 ft 373 kts 345°
2026-05-07 15:46 1.02018 173.52791 12159 ft 343 kts 349°
2026-05-07 15:46 1.04314 173.52298 11642 ft 331 kts 349°
2026-05-07 15:46 1.06518 173.51826 11162 ft 319 kts 349°
2026-05-07 15:47 1.08652 173.51368 10694 ft 309 kts 349°
2026-05-07 15:47 1.10722 173.50922 10226 ft 300 kts 349°
2026-05-07 15:47 1.12725 173.50488 9840 ft 290 kts 349°
2026-05-07 15:47 1.14662 173.50063 9441 ft 280 kts 349°
2026-05-07 15:48 1.16531 173.49654 9061 ft 270 kts 350°
2026-05-07 15:48 1.18330 173.49259 8690 ft 260 kts 350°
2026-05-07 15:48 1.20069 173.48873 8326 ft 252 kts 350°
2026-05-07 15:48 1.21786 173.48491 7972 ft 254 kts 349°
2026-05-07 15:49 1.23520 173.48103 7572 ft 257 kts 349°
2026-05-07 15:49 1.25281 173.47712 7148 ft 261 kts 349°
2026-05-07 15:49 1.27027 173.47323 6788 ft 257 kts 350°
2026-05-07 15:49 1.28745 173.46940 6442 ft 249 kts 349°
2026-05-07 15:50 1.30414 173.46564 6088 ft 243 kts 349°
2026-05-07 15:50 1.32038 173.46196 5718 ft 237 kts 349°
2026-05-07 15:50 1.33629 173.45835 5366 ft 232 kts 349°
2026-05-07 15:50 1.35214 173.45475 4950 ft 230 kts 350°
2026-05-07 15:51 1.36769 173.45120 4517 ft 229 kts 349°
2026-05-07 15:51 1.38297 173.44771 4082 ft 228 kts 349°
2026-05-07 15:51 1.39838 173.44420 3651 ft 227 kts 350°
2026-05-07 15:51 1.41371 173.43984 3244 ft 226 kts 335°
2026-05-07 15:52 1.42561 173.43031 3083 ft 220 kts 308°
2026-05-07 15:52 1.43170 173.41674 3005 ft 213 kts 281°
2026-05-07 15:52 1.43102 173.40245 3004 ft 202 kts 253°
2026-05-07 15:52 1.42460 173.39046 2987 ft 194 kts 227°
2026-05-07 15:53 1.41544 173.38067 2955 ft 192 kts 225°
2026-05-07 15:53 1.40638 173.37092 2933 ft 191 kts 225°
2026-05-07 15:53 1.39735 173.36118 2906 ft 191 kts 225°
2026-05-07 15:53 1.38836 173.35146 2882 ft 190 kts 225°
2026-05-07 15:54 1.37934 173.34173 2847 ft 191 kts 225°
2026-05-07 15:54 1.37032 173.33202 2829 ft 190 kts 225°
2026-05-07 15:54 1.36314 173.32092 2801 ft 192 kts 249°
2026-05-07 15:54 1.36116 173.30782 2776 ft 191 kts 275°
2026-05-07 15:55 1.36285 173.29455 2754 ft 193 kts 278°
2026-05-07 15:55 1.36457 173.28127 2540 ft 191 kts 278°
2026-05-07 15:55 1.36624 173.26820 2282 ft 185 kts 278°
2026-05-07 15:55 1.36782 173.25578 2021 ft 176 kts 278°
2026-05-07 15:56 1.36932 173.24391 1780 ft 169 kts 277°
2026-05-07 15:56 1.37076 173.23248 1545 ft 163 kts 277°
2026-05-07 15:56 1.37214 173.22140 1297 ft 159 kts 277°
2026-05-07 15:56 1.37354 173.21057 1058 ft 156 kts 277°
2026-05-07 15:57 1.37492 173.20008 889 ft 150 kts 277°
2026-05-07 15:57 1.37608 173.18983 674 ft 149 kts 278°
2026-05-07 15:57 1.37744 173.17956 469 ft 148 kts 278°
2026-05-07 15:57 1.37859 173.16941 288 ft 145 kts 278°
2026-05-07 15:58 1.38004 173.15958 121 ft 141 kts 279°
2026-05-07 15:58 1.38123 173.14997 17 ft 128 kts 278°
2026-05-07 15:58 1.38195 173.14399 16 ft 52 kts 278°
2026-05-07 15:58 1.38239 173.14108 21 ft 30 kts 277°
2026-05-07 15:59 1.38255 173.13974 20 ft 8 kts 286°
2026-05-07 15:59 1.38280 173.13933 20 ft 4 kts 302°
2026-05-07 15:59 1.38267 173.13924 20 ft 4 kts 178°
2026-05-07 15:59 1.38252 173.13943 21 ft 3 kts 103°
2026-05-07 16:00 1.38252 173.13959 20 ft 2 kts 90°
2026-05-07 16:00 1.38252 173.13969 20 ft 1 kts 89°
2026-05-07 16:00 1.38252 173.13986 20 ft 10 kts 90°
2026-05-07 16:00 1.38244 173.14082 19 ft 15 kts 96°
2026-05-07 16:01 1.38231 173.14195 16 ft 18 kts 96°
2026-05-07 16:01 1.38213 173.14333 14 ft 22 kts 98°
2026-05-07 16:01 1.38199 173.14445 14 ft 15 kts 97°
2026-05-07 16:01 1.38187 173.14539 14 ft 5 kts 97°
2026-05-07 16:02 1.38187 173.14541 14 ft 1 kts 97°
2026-05-07 16:02 1.38183 173.14572 13 ft 5 kts 97°
2026-05-07 16:02 1.38177 173.14621 13 ft 10 kts 97°
2026-05-07 16:02 1.38162 173.14683 15 ft 8 kts 119°
2026-05-07 16:03 1.38119 173.14700 14 ft 6 kts 191°
2026-05-07 16:03 1.38078 173.14682 16 ft 7 kts 208°
2026-05-07 16:03 1.38048 173.14657 13 ft 6 kts 229°
2026-05-07 16:03 1.38044 173.14650 13 ft 0 kts 238°